Crane Lake, MN

10:11 AM CST on December 13, 2019 (GMT -0600)
Crane Lake

Weather History for KCDD - June, 2019

Change the Weather History Date:

Tuesday, June 11, 2019

  Actual Average Record
Temperature  
Mean Temperature 50 °F -  
Max Temperature 69 °F 68 °F 86 °F (2007)
Min Temperature 30 °F 46 °F 30 °F (2019)
Degree Days  
Heating Degree Days 16    
Moisture  
Dew Point 43 °F    
Average Humidity 81    
Maximum Humidity 100    
Minimum Humidity 35    
Precipitation  
Precipitation 0.00 in - - ()
Sea Level Pressure  
Sea Level Pressure 30.03 in    
Wind  
Wind Speed 2 mph (SSW)    
Max Wind Speed 10 mph    
Max Gust Speed 22 mph    
Visibility 9 miles    
Events Rain    
Averages and records for this station are not official NWS values.
T = Trace of Precipitation, MM = Missing Value Source: NWS Daily Summary

Daily Weather History Graph

Daily Weather History Graph

Search for Another Location

Airport or City:

Astronomy

Jun. 11, 2019 Rise Set
Actual Time 5:09 AM CDT 9:10 PM CDT
Civil Twilight 4:27 AM CDT 9:51 PM CDT
Nautical Twilight 3:30 AM CDT 10:49 PM CDT
Astronomical Twilight 1:52 AM CDT 12:28 AM CDT
Moon 2:38 PM CDT (6/11) 2:27 AM CDT (6/11)
Length of Visible Light 17h 23m
Length of Day
16h 01m
Waxing Gibbous, 66% of the Moon is Illuminated
Jun 11
Waxing Gibbous
Jun 17
Full
Jun 25
Last Quarter
Jul 2
New
Jul 9
First Quarter

Hourly Weather History & Observations

Time (CDT) Temp. Dew Point Humidity Pressure Visibility Wind Dir Wind Speed Gust Speed Precip Events Conditions
12:55 AM 35.6 °F 35.6 °F 100% 30.12 in 10.0 mi Calm Calm - N/A   Clear
1:55 AM 35.6 °F 33.8 °F 93% 30.11 in 10.0 mi Calm Calm - N/A   Clear
2:10 AM 35.6 °F 33.8 °F 93% 30.11 in 10.0 mi Calm Calm - N/A   Clear
2:55 AM 33.8 °F 33.8 °F 100% 30.11 in 10.0 mi Calm Calm - N/A   Clear
3:11 AM 33.8 °F 33.8 °F 100% 30.11 in 10.0 mi Calm Calm - N/A   Clear
3:51 AM 33.8 °F 33.8 °F 100% 30.10 in 10.0 mi Calm Calm - N/A   Clear
3:55 AM 32.0 °F 32.0 °F 100% 30.10 in 10.0 mi Calm Calm - N/A   Clear
4:31 AM 32.0 °F 32.0 °F 100% 30.10 in 10.0 mi Calm Calm - N/A   Clear
4:55 AM 32.0 °F 32.0 °F 100% 30.11 in 10.0 mi Calm Calm - N/A   Clear
5:30 AM 30.2 °F 30.2 °F 100% 30.10 in 10.0 mi Calm Calm - N/A   Clear
5:51 AM 32.0 °F 30.2 °F 93% 30.10 in 10.0 mi Calm Calm - N/A   Clear
5:55 AM 32.0 °F 32.0 °F 100% 30.11 in 10.0 mi Calm Calm - N/A   Clear
6:55 AM 35.6 °F 35.6 °F 100% 30.10 in 10.0 mi Calm Calm - N/A   Clear
8:11 AM 51.8 °F 42.8 °F 71% 30.09 in 10.0 mi South 5.8 mph - N/A   Clear
8:30 AM 53.6 °F 42.8 °F 67% 30.08 in 10.0 mi SSW 5.8 mph - N/A   Clear
8:55 AM 57.2 °F 42.8 °F 59% 30.08 in 10.0 mi South 5.8 mph - N/A   Clear
9:55 AM 62.6 °F 42.8 °F 48% 30.05 in 10.0 mi South 6.9 mph - N/A   Clear
10:50 AM 66.2 °F 42.8 °F 43% 30.04 in 10.0 mi SSW 8.1 mph - N/A   Clear
10:55 AM 66.2 °F 42.8 °F 43% 30.04 in 10.0 mi South 9.2 mph - N/A   Clear
11:50 AM 68.0 °F 42.8 °F 40% 30.02 in 10.0 mi SW 10.4 mph - N/A   Clear
11:55 AM 68.0 °F 42.8 °F 40% 30.02 in 10.0 mi WSW 6.9 mph - N/A   Clear
12:31 PM 68.0 °F 42.8 °F 40% 30.00 in 10.0 mi South 6.9 mph - N/A   Scattered Clouds
12:55 PM 69.8 °F 44.6 °F 40% 29.99 in 10.0 mi WSW 6.9 mph - N/A   Scattered Clouds
2:51 PM 69.8 °F 44.6 °F 40% 29.92 in 10.0 mi WSW 5.8 mph - N/A   Scattered Clouds
3:18 PM 68.0 °F 44.6 °F 43% 29.93 in 10.0 mi WSW 6.9 mph 21.9 mph N/A Rain Light Rain
3:31 PM 69.8 °F 41.0 °F 35% 29.92 in 10.0 mi Calm Calm - N/A   Scattered Clouds
3:55 PM 62.6 °F 44.6 °F 52% 29.94 in 10.0 mi NNE 8.1 mph 17.3 mph N/A   Mostly Cloudy
5:33 PM 51.8 °F 51.8 °F 100% 29.98 in 10.0 mi SW 3.5 mph - N/A   Light Drizzle
5:55 PM 53.6 °F 51.8 °F 94% 29.98 in 10.0 mi Calm Calm - N/A   Overcast
6:01 PM 53.6 °F 51.8 °F 94% 29.98 in 10.0 mi Calm Calm - N/A   Overcast
6:31 PM 53.6 °F 53.6 °F 100% 29.96 in 10.0 mi Calm Calm - N/A   Mostly Cloudy
6:55 PM 55.4 °F 53.6 °F 94% 29.97 in 10.0 mi Calm Calm - N/A   Overcast
7:04 PM 55.4 °F 53.6 °F 94% 29.97 in 10.0 mi Calm Calm - N/A   Overcast
7:55 PM 53.6 °F 53.6 °F 100% 29.98 in 10.0 mi Calm Calm - N/A   Overcast
8:51 PM 53.6 °F 53.6 °F 100% 29.98 in 10.0 mi Calm Calm - N/A   Overcast
8:55 PM 53.6 °F 53.6 °F 100% 29.98 in 10.0 mi Calm Calm - N/A   Overcast
9:51 PM 51.8 °F 51.8 °F 100% 29.99 in 7.0 mi Calm Calm - N/A   Overcast
9:55 PM 51.8 °F 51.8 °F 100% 29.99 in 7.0 mi Calm Calm - N/A   Overcast
10:11 PM 51.8 °F 50.0 °F 94% 29.99 in 7.0 mi Calm Calm - N/A   Overcast
10:55 PM 48.2 °F 48.2 °F 100% 29.99 in 5.0 mi Calm Calm - N/A   Scattered Clouds
11:11 PM 46.4 °F 46.4 °F 100% 29.99 in 4.0 mi Calm Calm - N/A   Clear
11:55 PM 44.6 °F 44.6 °F 100% 29.99 in 5.0 mi Calm Calm - N/A   Clear